{"data":{"norad_id":64098,"intl_designator":"2025-110C","name":"STARLINK-34146","alt_names":[],"object_type":"PAYLOAD","status":"ACTIVE","operator":null,"country":"US","launch_date":"2025-05-23","launch_site_code":"AFWTR","launch_vehicle":null,"mission":null,"orbit_class":"UNKNOWN","rcs_meters":null,"size_class":null,"mass_kg":null,"dimensions":null,"purposes":["comms"],"wikipedia_slug":null,"has_3d_model":false,"image_url":null,"decayed_at":null,"tle_current":{"epoch":"2026-05-25T02:32:42.569664Z","epoch_age_seconds":55944,"freshness":"FRESH","line1":"1 64098U 25110C   26145.10604826  .00029546  00000+0  88195-3 0  9990","line2":"2 64098  53.1589  31.0063 0001021  92.4647 267.6472 15.34407206 57580","mean_motion":15.34407206,"eccentricity":0.0001021,"inclination_deg":53.1589,"raan_deg":31.0063,"arg_perigee_deg":92.4647,"mean_anomaly_deg":267.6472,"bstar":0.00088195,"rev_number":5758,"period_min":93.847317346345,"perigee_km":461.98337493855,"apogee_km":463.38027014211,"semimajor_km":6840.8188225403,"source":"CELESTRAK","updated_at":"2026-05-25T13:38:20.263594Z"}}}